Home   Weather   Swakopmund   Past weeks
Flag for Namibia

Past Weather in Swakopmund, Namibia — Yesterday and Last 2 Weeks

Now
59 °F

Cool.


Feels Like: 58 °F
Forecast: 69 / 63 °F
Wind: 6 mph from North

Location: Walvis Bay

Current Time: Apr 4, 2020 at 6:37:24 am

Latest Report: Apr 4, 2020 at 5:00 am


Visibility: N/A

Pressure: 29.95 "Hg

Humidity: 94%

Dew Point: 57 °F

Location of SwakopmundLocation

Past Weather in Swakopmund — Graph

°F

Swakopmund Temperature Yesterday

Maximum temperature yesterday: 79 °F (at 2:00 pm)
Minimum temperature yesterday: 59 °F (at 10:00 pm)
Average temperature yesterday: 68 °F

High & Low Weather Summary for the Past Weeks

 TemperatureHumidityPressure
High79 °F (Apr 3, 2:00 pm)94% (Mar 20, 5:00 am)30.01 "Hg (Mar 20, 5:00 am)
Low59 °F (Mar 20, 5:00 am)48% (Apr 3, 2:00 pm)29.86 "Hg (Mar 21, 4:00 pm)
Average65 °F78%29.93 "Hg
* Reported Mar 20 5:00 am — Apr 4 5:00 am, Swakopmund. Weather by CustomWeather, © 2020

Note: Actual official high and low records may vary slightly from our data, if they occured in-between our weather recording intervals... More about our weather records

Swakopmund Weather History for the Previous 24 Hours

Scroll right to see more
 ConditionsComfort  
Time TempWeatherWind HumidityBarometerVisibility
5:00 am
Sat, Apr 4
59 °FCool.6 mph94%29.95 "HgN/A
4:00 am59 °FCool.6 mph94%29.95 "HgN/A
3:00 am59 °FCool.6 mph94%29.95 "HgN/A
2:00 am59 °FCool.5 mph94%29.95 "HgN/A
1:00 am59 °FCool.6 mph94%29.95 "HgN/A
12:00 am59 °FCool.5 mph94%29.98 "HgN/A
11:00 pm
Fri, Apr 3
59 °FCool.3 mph94%29.95 "HgN/A
10:00 pm59 °FCool.5 mph94%29.95 "HgN/A
9:00 pm61 °FCool.5 mph88%29.92 "HgN/A
8:00 pm63 °FMild.7 mph88%29.92 "HgN/A
7:00 pm64 °FMild.7 mph83%29.89 "HgN/A
6:00 pm68 °FMild.9 mph73%29.89 "HgN/A
5:00 pm73 °FMild.9 mph61%29.86 "HgN/A
4:00 pm77 °FWarm.10 mph51%29.86 "HgN/A
3:00 pm79 °FWarm.10 mph48%29.86 "HgN/A
2:00 pm79 °FWarm.10 mph48%29.89 "HgN/A
Weather by CustomWeather, © 2020

See weather overview

Advertising